Simultaneous Nadir Overpasses (SNOs) Predictions

Prediction of SNOs between METOP-B and TERRA Satellite Orbit:

Table of predicted SNOs for the next 14.0 days since TLE Epoch: 8/26/2017
Index Date (METOP-B) Time (METOP-B) Lat,Lon (METOP-B) SZA (METOP-B ) Date (TERRA) Time (TERRA) Lat,Lon (TERRA) SZA (TERRA ) Distance(km) Time Diff (sec)
1 08/27/2017 14:30:26 -81.34,-169.96 105.69 08/27/2017 14:30:57 -81.34,-169.86 105.66 1.78 31
2 08/27/2017 15:21:05 81.35, -2.09 74.40 08/27/2017 15:20:23 81.35, -2.11 74.37 0.51 42
3 08/30/2017 10:04:45 -81.35,-103.18 104.63 08/30/2017 10:05:12 -81.35,-103.17 104.61 0.82 27
4 08/30/2017 10:55:23 81.35, 64.66 75.45 08/30/2017 10:54:37 81.36, 64.56 75.42 1.78 46
5 09/02/2017 05:39:04 -81.35, -36.81 103.59 09/02/2017 05:39:27 -81.34, -36.90 103.59 1.36 23
6 09/02/2017 06:29:43 81.35, 131.00 76.48 09/02/2017 06:28:53 81.35, 130.82 76.44 3.00 50
7 09/05/2017 01:13:24 -81.34, 29.53 102.55 09/05/2017 01:13:42 -81.35, 29.72 102.51 3.35 18
8 09/05/2017 02:04:03 81.35,-162.68 77.53 09/05/2017 02:03:08 81.36,-162.57 77.52 1.98 55
9 09/07/2017 20:47:44 -81.34, 95.86 101.49 09/07/2017 20:47:58 -81.34, 95.93 101.47 1.10 14




NCC Satellite Simultaneous Nadir Overpasses (SNOs) Prediction Service
